Regional Weather Roundup
Issued by NWS Midland/Odessa, TX

Skip options and go directly to product.
Home | Oldest Version | Next Version | Current Version | All | Text Only | Save Text | Print | Product List | Glossary On

Skip product version selection by date and time.   
098
ASUS44 KMAF 241210
RWRMAF
MIDLAND AREA WEATHER ROUNDUP
NATIONAL WEATHER SERVICE MIDLAND TX
600 AM CST FRI FEB 24 2017

...IN SOUTHWEST TEXAS AND SOUTHEAST NEW MEXICO...

CITY           SKY/WX    TMP DP  RH WIND       PRES   REMARKS
ALPINE         CLEAR     55  20  25 SW13      29.95R
ANDREWS        FAIR      49  11  22 W10       29.83R
ARTESIA        CLEAR     36   7  30 CALM      29.85R
BIG SPRING     CLEAR     49  21  33 NW9       29.84R
CARLSBAD       CLEAR     53   7  15 W36G46    29.77R
DRYDEN           N/A     55  21  26 W7        29.78R
FORT STOCKTON  CLEAR     51  11  20 W8        29.84R
GUAD PASS      CLEAR     42   7  23 W30G45    29.89R WCI  31
HOBBS          CLEAR     36   9  32 N5        29.85R WCI  32
MARFA          CLEAR     42  19  39 W8        29.94R WCI  37
MIDLAND AIRPK  CLEAR     50  15  25 W10       29.82R
MIDLAND INTL   CLEAR     51  14  22 W13       29.82R
ODESSA         CLEAR     46  14  27 W8        29.83R
PECOS          CLEAR     47  10  21 W9        29.84R
PRESIDIO       FAIR      58  20  22 W10       29.89R
SEMINOLE       CLEAR     41  14  34 NW10      29.85R WCI  34
SNYDER         CLEAR     43  32  65 N15G21    29.82R WCI  35
WINK           CLEAR     44  10  25 W10       29.82R WCI  39
$$
...OTHER STATIONS IN TEXAS...

CITY           SKY/WX    TMP DP  RH WIND       PRES   REMARKS
ABILENE        CLEAR     42  36  79 N12       29.82R WCI  36
AMARILLO       PTCLDY    25  20  81 N14       29.86R WCI  13
AUSTIN         CLEAR     61  59  93 S3        29.67S
BROWNSVILLE    CLEAR     70  67  90 SE13      29.63F
CORPUS CHRISTI CLEAR     66  65  96 S12       29.63R
DALLAS FTW     PTCLDY    53  42  66 NW20      29.67R
DEL RIO        CLEAR     53  44  71 CALM      29.72R
EL PASO        CLEAR     47   9  21 N9        29.92R
HOUSTON INT    MOCLDY    66  63  90 CALM      29.72S
LUBBOCK        PTCLDY    34  28  79 N16       29.85R WCI  24
SAN ANGELO     PTCLDY    46  30  53 W5        29.78R
SAN ANTONIO    PTCLDY    56  55  97 CALM      29.70R
WACO           CLEAR     51  51 100 S5        29.66R
WICHITA FALLS  NOT AVBL
$$
...OTHER LOCATIONS IN NEW MEXICO...

CITY           SKY/WX    TMP DP  RH WIND       PRES   REMARKS
ALAMAGORDO     CLEAR     41   7  24 S5        29.92R WCI  38
ALBUQUERQUE    PTCLDY    33  18  53 NW7       29.88R WCI  27
CANNON AFB     CLEAR     27  27 100 NW8       29.83R WCI  19
CLOVIS         CLEAR     27  21  80 NE6       29.83R WCI  20
HOLLOMAN AFB   CLEAR     41   9  26 W12       29.94R WCI  34
ROSWELL        CLEAR     35   9  33 NE3         N/A
RUIDOSO        CLEAR     32  -4  21 NW15G21   29.87R WCI  22
SANTA FE       PTCLDY    22   9  57 NW5       29.83R WCI  16
TRUTH OR CONSE CLEAR     36   8  31 NW10      29.90R WCI  28
TUCUMCARI      CLEAR     25  22  88 E6        29.84R WCI  18
$$

  • National Weather Service
  • Southern Region Headquarters
  • 819 Taylor Street, Room 10A06
  • Fort Worth, TX 76102
  • Page Author: NWS Fort Worth
  • Web Master: SR-SRH.Webmaster@noaa.gov
  •  
  • Page last modified: 30-Sep-2016 6:36 PM UTC
USA.gov is the U.S. government's official web portal to all federal, state and local government web resources and services.